Time,TemperatureF,DewpointF,PressureIn,WindDirection,WindDirectionDegrees,WindSpeedMPH,WindSpeedGustMPH,Humidity,HourlyPrecipIn,Conditions,Clouds,dailyrainin,SoftwareType,DateUTC
2013-02-06 00:29:00,41.4,38.4,29.93,WSW,247,0.0,5.0,89,0.00,,,0.00,VWS V14.01,2013-02-06 08:29:00,
2013-02-06 00:59:00,42.9,35.2,29.93,ENE,68,0.0,4.0,74,0.00,,,0.00,VWS V14.01,2013-02-06 08:59:00,
2013-02-06 01:29:00,45.0,34.0,29.92,ENE,68,0.0,0.0,65,0.00,,,0.00,VWS V14.01,2013-02-06 09:29:00,
2013-02-06 01:59:00,42.5,33.1,29.92,ENE,69,0.0,7.0,69,0.00,,,0.00,VWS V14.01,2013-02-06 09:59:00,
2013-02-06 02:29:00,39.4,31.8,29.92,ENE,72,0.0,6.0,74,0.00,,,0.00,VWS V14.01,2013-02-06 10:29:00,
2013-02-06 02:59:00,38.6,35.6,29.92,ESE,112,0.0,1.0,89,0.00,,,0.00,VWS V14.01,2013-02-06 10:59:00,
2013-02-06 03:29:00,38.8,36.4,29.92,ESE,104,4.0,5.0,91,0.00,,,0.00,VWS V14.01,2013-02-06 11:29:00,
2013-02-06 03:59:00,39.1,37.0,29.90,East,84,0.0,8.0,92,0.00,,,0.00,VWS V14.01,2013-02-06 11:59:00,
2013-02-06 04:29:00,36.8,34.4,29.90,East,83,0.0,5.0,91,0.00,,,0.00,VWS V14.01,2013-02-06 12:29:00,
2013-02-06 04:59:00,35.7,33.3,29.90,East,83,0.0,3.0,91,0.00,,,0.00,VWS V14.01,2013-02-06 12:59:00,
2013-02-06 05:29:00,35.2,31.7,29.91,WSW,238,8.0,9.0,87,0.00,,,0.00,VWS V14.01,2013-02-06 13:29:00,
2013-02-06 05:59:00,37.6,35.8,29.91,ENE,68,0.0,8.0,93,0.00,,,0.00,VWS V14.01,2013-02-06 13:59:00,
2013-02-06 06:29:00,35.1,32.7,29.92,ENE,70,0.0,2.0,91,0.00,,,0.00,VWS V14.01,2013-02-06 14:29:00,
2013-02-06 06:59:00,35.1,33.3,29.93,East,83,1.0,6.0,93,0.00,,,0.00,VWS V14.01,2013-02-06 14:59:00,
2013-02-06 07:29:00,34.2,32.4,29.94,ESE,116,0.0,6.0,93,0.00,,,0.00,VWS V14.01,2013-02-06 15:29:00,
2013-02-06 07:59:00,37.1,35.5,29.94,ESE,116,0.0,1.0,94,0.00,,,0.00,VWS V14.01,2013-02-06 15:59:00,
2013-02-06 08:29:00,38.0,36.4,29.95,ESE,115,0.0,2.0,94,0.00,,,0.00,VWS V14.01,2013-02-06 16:29:00,
2013-02-06 08:59:00,41.7,40.1,29.95,WSW,252,7.0,8.0,94,0.00,,,0.00,VWS V14.01,2013-02-06 16:59:00,
2013-02-06 09:29:00,42.0,39.3,29.97,SW,229,3.0,9.0,90,0.00,,,0.00,VWS V14.01,2013-02-06 17:29:00,
2013-02-06 09:59:00,43.0,40.0,29.98,West,280,4.0,11.0,89,0.00,,,0.00,VWS V14.01,2013-02-06 17:59:00,
2013-02-06 10:29:00,44.1,40.5,29.98,WSW,253,0.0,10.0,87,0.00,,,0.00,VWS V14.01,2013-02-06 18:29:00,
2013-02-06 10:59:00,48.3,42.8,29.97,WSW,244,5.0,6.0,81,0.00,,,0.00,VWS V14.01,2013-02-06 18:59:00,
2013-02-06 11:29:00,50.5,43.2,29.96,West,264,10.0,11.0,76,0.00,,,0.00,VWS V14.01,2013-02-06 19:29:00,
2013-02-06 11:59:00,52.2,43.1,29.96,WSW,249,3.0,16.0,71,0.00,,,0.00,VWS V14.01,2013-02-06 19:59:00,
2013-02-06 12:29:00,53.7,44.2,29.96,WSW,242,0.0,14.0,70,0.00,,,0.00,VWS V14.01,2013-02-06 20:29:00,
2013-02-06 12:59:00,53.9,43.6,29.96,NW,325,2.0,11.0,68,0.00,,,0.00,VWS V14.01,2013-02-06 20:59:00,
2013-02-06 13:29:00,54.2,42.7,29.97,WNW,285,4.0,10.0,65,0.00,,,0.00,VWS V14.01,2013-02-06 21:29:00,
2013-02-06 13:59:00,56.2,43.4,29.96,NW,320,0.0,9.0,62,0.00,,,0.00,VWS V14.01,2013-02-06 21:59:00,
2013-02-06 14:29:00,56.4,44.0,29.95,NW,310,3.0,9.0,63,0.00,,,0.00,VWS V14.01,2013-02-06 22:29:00,
2013-02-06 14:59:00,56.8,44.3,29.96,WSW,246,8.0,10.0,63,0.00,,,0.00,VWS V14.01,2013-02-06 22:59:00,
2013-02-06 15:29:00,56.4,44.4,29.96,WNW,283,5.0,11.0,64,0.00,,,0.00,VWS V14.01,2013-02-06 23:29:00,
2013-02-06 15:59:00,55.1,43.2,29.97,NW,311,0.0,8.0,64,0.00,,,0.00,VWS V14.01,2013-02-06 23:59:00,
2013-02-06 16:29:00,53.7,43.0,29.97,NW,320,0.0,5.0,67,0.00,,,0.00,VWS V14.01,2013-02-07 00:29:00,
2013-02-06 16:59:00,51.9,42.4,29.97,WNW,289,0.0,4.0,70,0.00,,,0.00,VWS V14.01,2013-02-07 00:59:00,
2013-02-06 17:29:00,49.7,41.8,29.98,NW,323,0.0,3.0,74,0.00,,CLR,0.00,VWS V14.01,2013-02-07 01:29:00,
2013-02-06 17:59:00,44.6,38.8,29.99,ENE,77,0.0,5.0,80,0.00,,CLR,0.00,VWS V14.01,2013-02-07 01:59:00,
2013-02-06 18:29:00,41.8,37.0,30.00,East,82,1.0,8.0,83,0.00,,CLR,0.00,VWS V14.01,2013-02-07 02:29:00,
2013-02-06 18:59:00,40.5,36.3,30.00,East,81,2.0,8.0,85,0.00,,CLR,0.00,VWS V14.01,2013-02-07 02:59:00,
2013-02-06 19:29:00,40.7,36.2,30.00,East,81,0.0,8.0,84,0.00,,CLR,0.00,VWS V14.01,2013-02-07 03:29:00,
2013-02-06 19:59:00,40.9,33.9,30.02,East,81,3.0,8.0,76,0.00,,CLR,0.00,VWS V14.01,2013-02-07 03:59:00,
2013-02-06 20:29:00,42.1,33.7,30.02,East,81,0.0,8.0,72,0.00,,CLR,0.00,VWS V14.01,2013-02-07 04:29:00,
2013-02-06 20:59:00,41.5,33.5,30.03,East,81,3.0,8.0,73,0.00,,CLR,0.00,VWS V14.01,2013-02-07 04:59:00,
2013-02-06 21:29:00,41.7,33.7,30.04,East,81,6.0,9.0,73,0.00,,CLR,0.00,VWS V14.01,2013-02-07 05:29:00,
2013-02-06 21:59:00,41.1,33.5,30.04,ENE,62,7.0,9.0,74,0.00,,CLR,0.00,VWS V14.01,2013-02-07 05:59:00,
2013-02-06 22:29:00,40.9,33.6,30.05,East,89,8.0,10.0,75,0.00,,CLR,0.00,VWS V14.01,2013-02-07 06:29:00,
2013-02-06 22:59:00,40.6,33.3,30.05,East,80,1.0,9.0,75,0.00,,CLR,0.00,VWS V14.01,2013-02-07 06:59:00,
2013-02-06 23:29:00,40.0,32.7,30.06,ENE,73,5.0,8.0,75,0.00,,CLR,0.00,VWS V14.01,2013-02-07 07:29:00,
2013-02-06 23:59:00,40.0,32.7,30.06,East,90,6.0,9.0,75,0.00,,CLR,0.00,VWS V14.01,2013-02-07 07:59:00,